FW3667 Weather Reports


time (UTC)temp
F
wind
direction
speed
knots
gust
knots
rain 1hr
in
rain 24hr
in
rain mn
in
humidity
%
barometer
mb
20260906144609 94 348 0.0 0.0 0.00 0.00 0.00 55 1009.0
20260906143101 93 38 0.0 0.0 0.00 0.00 0.00 58 1009.1
20260906141550 92 261 0.0 0.0 0.00 0.00 0.00 59 1009.1
20260906140043 89 226 0.0 0.0 0.00 0.00 0.00 64 1009.1
20260906134536 87 1 0.0 0.0 0.00 0.00 0.00 67 1008.9
20260906133033 82 346 0.0 0.0 0.00 0.00 0.00 77 1008.9
20260906131526 76 346 0.0 0.0 0.00 0.00 0.00 87 1009.1
20260906130022 74 346 0.0 0.0 0.00 0.00 0.00 90 1008.8
20260906124521 72 346 0.0 0.0 0.00 0.00 0.00 92 1008.8
20260906123015 71 346 0.0 0.0 0.00 0.00 0.00 92 1008.6
20260906121510 71 344 0.0 0.0 0.00 0.00 0.00 91 1008.4
20260906120010 71 344 0.0 0.0 0.00 0.00 0.00 90 1008.3
20260906114520 71 344 0.0 0.0 0.00 0.00 0.00 90 1008.3
20260906113007 72 344 0.0 0.0 0.00 0.00 0.00 90 1008.0
20260906111534 72 344 0.0 0.0 0.00 0.00 0.00 89 1007.9
20260906110028 72 353 0.0 0.0 0.00 0.00 0.00 90 1007.8
20260906104532 71 353 0.0 0.0 0.00 0.00 0.00 90 1007.8
20260906103020 71 353 0.0 0.0 0.00 0.00 0.00 91 1007.8
20260906101517 70 140 0.0 0.0 0.00 0.00 0.00 91 1007.4
20260906100015 70 140 0.0 0.0 0.00 0.00 0.00 90 1007.3
20260906094533 71 140 0.0 0.0 0.00 0.00 0.00 90 1007.2
20260906093017 71 140 0.0 0.0 0.00 0.00 0.00 90 1007.2
20260906091508 71 140 0.0 0.0 0.00 0.00 0.00 90 1007.2
20260906090013 71 140 0.0 0.0 0.00 0.00 0.00 89 1007.2
20260906084510 72 140 0.0 0.0 0.00 0.00 0.00 89 1007.2
20260906084508 71 140 0.0 0.0 0.00 0.00 0.00 89 1007.2
20260906083051 72 140 0.0 0.0 0.00 0.00 0.00 89 1007.2
20260906081550 72 140 0.0 0.0 0.00 0.00 0.00 88 1007.1
20260906080150 72 140 0.0 0.0 0.00 0.00 0.00 88 1007.3
20260906074533 72 140 0.0 0.0 0.00 0.00 0.00 87 1007.5
20260906073029 72 140 0.0 0.0 0.00 0.00 0.00 87 1007.6
20260906071530 73 140 0.0 0.0 0.00 0.00 0.00 87 1007.6
20260906070025 73 140 0.0 0.0 0.00 0.00 0.00 86 1007.6
20260906064524 73 140 0.0 0.0 0.00 0.00 0.00 86 1007.6
20260906063024 73 140 0.0 0.0 0.00 0.00 0.00 85 1007.6
20260906061527 74 140 0.0 0.0 0.00 0.00 0.00 85 1007.7
20260906060021 74 140 0.0 0.0 0.00 0.00 0.00 83 1007.5
20260906054521 75 140 0.0 0.0 0.00 0.00 0.00 83 1007.7
20260906053020 75 140 0.0 0.0 0.00 0.00 0.00 82 1007.5
20260906051520 75 140 0.0 0.0 0.00 0.00 0.00 81 1007.5
20260906050057 75 140 0.0 0.0 0.00 0.00 0.00 81 1007.5
20260906044555 76 140 0.0 0.0 0.00 0.00 0.00 80 1007.3
20260906043047 76 140 0.0 0.0 0.00 0.00 0.00 80 1007.3
20260906041547 76 140 0.0 0.0 0.00 0.00 0.00 79 1007.5
20260906040054 76 140 0.0 0.0 0.00 0.00 0.00 78 1007.4
20260906034546 77 140 0.0 0.0 0.00 0.00 0.00 77 1007.4
20260906033015 77 140 0.0 0.0 0.00 0.00 0.00 77 1007.5
20260906031514 77 140 0.0 0.0 0.00 0.00 0.00 77 1007.4
20260906030012 78 140 0.0 0.0 0.00 0.00 0.00 76 1007.5
20260906024530 78 140 0.0 0.0 0.00 0.00 0.00 75 1007.3
20260906023018 79 140 0.0 0.0 0.00 0.00 0.00 74 1007.0
20260906021512 80 140 0.0 0.0 0.00 0.00 0.00 72 1007.0
20260906020009 81 140 0.0 0.0 0.00 0.00 0.00 71 1006.7
20260906014511 82 140 0.0 0.0 0.00 0.00 0.00 67 1006.5
20260906013022 83 140 0.0 0.0 0.00 0.00 0.00 65 1006.4
20260906011508 84 305 0.0 0.0 0.00 0.00 0.00 64 1005.9
20260906010037 86 305 0.0 0.0 0.00 0.00 0.00 61 1005.9
20260906004536 88 305 0.0 0.0 0.00 0.00 0.00 56 1005.6
20260906003034 89 305 0.0 0.0 0.00 0.00 0.00 53 1005.7
20260906001534 91 41 0.0 0.0 0.00 0.00 0.00 49 1005.7
20260906000037 92 355 0.0 0.0 0.00 0.00 0.00 47 1005.8
20260905234535 94 355 0.0 0.0 0.00 0.00 0.00 45 1005.8
20260905233031 96 277 0.0 0.0 0.00 0.00 0.00 42 1005.8
20260905231530 97 277 0.0 0.0 0.00 0.00 0.00 40 1005.7
20260905230029 98 291 0.0 0.0 0.00 0.00 0.00 39 1005.5
20260905224528 100 343 0.0 0.0 0.00 0.00 0.00 38 1005.5
20260905223025 104 332 0.0 0.0 0.00 0.00 0.00 33 1005.3
20260905221524 107 206 0.0 0.0 0.00 0.00 0.00 31 1005.3
20260905220022 107 207 0.0 0.0 0.00 0.00 0.00 31 1005.4
20260905214525 107 355 0.0 0.0 0.00 0.00 0.00 30 1005.5
20260905213059 105 283 0.0 0.0 0.00 0.00 0.00 33 1005.5
20260905211548 105 16 0.0 0.0 0.00 0.00 0.00 33 1005.8
20260905210051 105 351 0.0 0.0 0.00 0.00 0.00 32 1005.9
20260905204545 105 21 0.0 0.0 0.00 0.00 0.00 33 1006.1
20260905203042 104 300 0.0 0.0 0.00 0.00 0.00 32 1006.3
20260905201541 105 310 0.0 0.0 0.00 0.00 0.00 32 1006.6
20260905200038 105 137 0.0 0.0 0.00 0.00 0.00 32 1006.9
20260905194529 106 12 0.0 0.0 0.00 0.00 0.00 34 1007.0
20260905193025 104 92 0.0 0.0 0.00 0.00 0.00 34 1007.1
20260905191524 104 326 0.0 0.0 0.00 0.00 0.00 34 1007.5
20260905190022 103 218 0.0 0.0 0.00 0.00 0.00 36 1007.6
20260905184553 104 3 0.0 0.0 0.00 0.00 0.00 34 1007.7
20260905183047 103 203 0.0 0.0 0.00 0.00 0.00 36 1008.0
20260905181554 104 115 0.0 0.0 0.00 0.00 0.00 35 1008.1
20260905180042 102 303 0.0 0.0 0.00 0.00 0.00 37 1008.3
20260905174539 103 271 0.0 0.0 0.00 0.00 0.00 36 1008.5
20260905173035 101 215 0.0 0.0 0.00 0.00 0.00 39 1008.7
20260905171533 101 332 0.0 0.0 0.00 0.00 0.00 40 1008.9
20260905170030 98 130 0.0 0.0 0.00 0.00 0.00 43 1009.0
20260905164529 98 23 0.0 0.0 0.00 0.00 0.00 42 1009.3
20260905163033 100 31 0.0 0.0 0.00 0.00 0.00 43 1009.3
20260905161522 98 199 0.0 0.0 0.00 0.00 0.00 48 1009.4
20260905160019 96 355 0.0 0.0 0.00 0.00 0.00 49 1009.5
20260905154515 94 334 0.0 0.0 0.00 0.00 0.00 51 1009.4
20260905153015 94 345 0.0 0.0 0.00 0.00 0.00 53 1009.5
20260905151512 93 2 0.0 0.0 0.00 0.00 0.00 56 1009.6